Weather History for Lugano, Switzerland

Change the Weather History Date:

Tuesday, May 7, 2013

  Actual Average Record
Temperature  
Mean Temperature 60 °F -  
Max Temperature 71 °F 67 °F - ()
Min Temperature 50 °F 52 °F - ()
Degree Days  
Heating Degree Days 4    
Growing Degree Days 10 (Base 50)    
Moisture  
Dew Point 54 °F    
Average Humidity 83    
Maximum Humidity 100    
Minimum Humidity 46    
Precipitation  
Precipitation 0.02 in 0.26 in - ()
Sea Level Pressure  
Sea Level Pressure 29.95 in    
Wind  
Wind Speed 3 mph ()    
Max Wind Speed 10 mph    
Max Gust Speed 24 mph    
Visibility 6.0 miles    
Events Rain , Thunderstorm    
T = Trace of Precipitation, MM = Missing Value Source: Averaged Metar Reports

Daily Weather History Graph

Daily Weather History Graph

Search for Another Location

Airport:

Trip Planner

Search our weather history database for the weather conditions in past years. The results will help you decide how hot, cold, wet, or windy it might be!

Date:

Astronomy

May. 07, 2013 Rise Set
Actual Time 6:02 AM CEST 8:40 PM CEST
Civil Twilight 5:28 AM CEST 9:14 PM CEST
Nautical Twilight 4:45 AM CEST 9:57 PM CEST
Astronomical Twilight 3:56 AM CEST 10:46 PM CEST
Moon 4:36 AM CEST (5/7) 6:17 PM CEST (5/7)
Length of Visible Light 15h 45m
Length of Day
14h 37m
Waning Crescent, 7% of the Moon is Illuminated
May 7
Waning Crescent
May 10
New
May 18
First Quarter
May 25
Full
May 31
Last Quarter

Hourly Weather History & Observations

Time (CEST) Temp. Dew Point Humidity Pressure Visibility Wind Dir Wind Speed Gust Speed Precip Events Conditions
12:00 AM 57 °F 55 °F 92% 29.99 in - WSW 1.2 mph - -  
12:20 AM 55.4 °F 53.6 °F 94% 29.98 in 6.2 mi Variable 1.2 mph - N/A   Unknown
12:50 AM 53.6 °F 53.6 °F 100% 29.98 in 6.2 mi Variable 2.3 mph - N/A   Partly Cloudy
1:00 AM 57 °F 55 °F 91% 29.99 in - NNW 2.3 mph - -  
1:20 AM 53.6 °F 53.6 °F 100% 29.98 in 6.2 mi Variable 3.5 mph 24.2 mph N/A   Scattered Clouds
1:50 AM 53.6 °F 53.6 °F 100% 29.98 in 6.2 mi Variable 1.2 mph - N/A   Overcast
2:20 AM 53.6 °F 53.6 °F 100% 29.98 in 6.2 mi Variable 1.2 mph - N/A   Unknown
2:50 AM 53.6 °F 53.6 °F 100% 29.98 in 6.2 mi North 3.5 mph - N/A   Mostly Cloudy
3:00 AM 56 °F 54 °F 93% 29.99 in - NE 1.2 mph - -  
3:20 AM 53.6 °F 53.6 °F 100% 29.98 in 6.2 mi North 2.3 mph - N/A   Overcast
3:50 AM 53.6 °F 53.6 °F 100% 29.98 in 6.2 mi Variable 1.2 mph - N/A   Scattered Clouds
4:00 AM 55 °F 53 °F 91% 29.98 in - Calm Calm - -  
4:20 AM 53.6 °F 53.6 °F 100% 29.95 in 6.2 mi NNE 2.3 mph - N/A   Partly Cloudy
4:50 AM 51.8 °F 51.8 °F 100% 29.95 in 5.0 mi North 3.5 mph - N/A   Unknown
5:20 AM 51.8 °F 51.8 °F 100% 29.95 in - Variable 1.2 mph - N/A   Clear
5:50 AM 50.0 °F 50.0 °F 100% 29.95 in - North 2.3 mph - N/A   Clear
6:00 AM 53 °F 51 °F 92% 29.97 in - North 1.2 mph - -  
6:20 AM 50.0 °F 50.0 °F 100% 29.95 in - North 3.5 mph - N/A   Clear
6:50 AM 50.0 °F 50.0 °F 100% 29.95 in - North 3.5 mph - N/A   Clear
7:00 AM 53 °F 51 °F 88% 29.97 in - NNW 3.5 mph - -  
7:20 AM 51.8 °F 50.0 °F 94% 29.98 in - Variable 1.2 mph - N/A   Clear
7:50 AM 51.8 °F 51.8 °F 100% 29.95 in - SE 2.3 mph - N/A   Clear
8:20 AM 57.2 °F 55.4 °F 94% 29.95 in - East 1.2 mph - N/A   Clear
8:50 AM 60.8 °F 53.6 °F 77% 29.95 in - Variable 1.2 mph - N/A   Clear
9:00 AM 57 °F 53 °F 81% 29.96 in - ESE 2.3 mph - -  
9:20 AM 60.8 °F 53.6 °F 77% 29.95 in - Variable 2.3 mph - N/A   Clear
9:50 AM 62.6 °F 55.4 °F 77% 29.95 in - Variable 2.3 mph - N/A   Clear
10:00 AM 58 °F 54 °F 82% 29.95 in - South 2.3 mph - -  
10:20 AM 66.2 °F 55.4 °F 68% 29.95 in - Variable 2.3 mph - N/A   Clear
10:50 AM 66.2 °F 57.2 °F 73% 29.95 in - South 4.6 mph - N/A   Clear
11:20 AM 66.2 °F 53.6 °F 64% 29.92 in 6.2 mi South 4.6 mph - N/A   Scattered Clouds
11:50 AM 68.0 °F 55.4 °F 64% 29.92 in 6.2 mi South 5.8 mph - N/A   Scattered Clouds
12:00 PM 65 °F 54 °F 58% 29.92 in - ESE 1.2 mph - -  
12:20 PM 69.8 °F 53.6 °F 56% 29.92 in 6.2 mi South 6.9 mph - N/A   Scattered Clouds
12:50 PM 71.6 °F 55.4 °F 57% 29.92 in 6.2 mi South 10.4 mph - N/A   Scattered Clouds
1:00 PM 68 °F 55 °F 53% 29.90 in - South 5.8 mph - -  
1:20 PM 71.6 °F 55.4 °F 57% 29.92 in 6.2 mi SSW 9.2 mph - N/A   Scattered Clouds
1:50 PM 69.8 °F 55.4 °F 60% 29.92 in 6.2 mi South 10.4 mph - N/A   Scattered Clouds
2:20 PM 69.8 °F 55.4 °F 60% 29.89 in 6.2 mi SSW 6.9 mph - N/A Rain , Thunderstorm Thunderstorms and Rain
2:50 PM 66.2 °F 57.2 °F 73% 29.89 in 6.2 mi SW 8.1 mph - N/A Rain Rain Showers
3:00 PM 67 °F 54 °F 53% 29.88 in - South 10.4 mph - -  
3:20 PM 66.2 °F 55.4 °F 68% 29.89 in 5.6 mi SW 9.2 mph - N/A Rain , Thunderstorm Thunderstorms and Rain
3:50 PM 62.6 °F 53.6 °F 72% 29.92 in 5.6 mi WNW 6.9 mph - N/A Rain , Thunderstorm Thunderstorms and Rain
4:00 PM 66 °F 50 °F 46% 29.90 in - NW 3.5 mph - -  
4:20 PM 62.6 °F 51.8 °F 68% 29.92 in 5.0 mi North 9.2 mph - N/A Rain , Thunderstorm Thunderstorms and Rain
4:50 PM 57.2 °F 53.6 °F 88% 29.95 in 3.7 mi Variable 2.3 mph - N/A Rain , Thunderstorm Heavy Thunderstorms and Rain
5:20 PM 57.2 °F 55.4 °F 94% 29.95 in 6.2 mi NW 5.8 mph - N/A   Scattered Clouds
5:50 PM 59.0 °F 55.4 °F 88% 29.95 in 6.2 mi Variable 2.3 mph - N/A   Mostly Cloudy
6:00 PM 58 °F 56 °F 91% 29.95 in - SW 2.3 mph - -  
6:20 PM 60.8 °F 55.4 °F 82% 29.95 in 6.2 mi Variable 2.3 mph - N/A   Mostly Cloudy
6:50 PM 60.8 °F 55.4 °F 82% 29.95 in 6.2 mi Variable 2.3 mph - N/A   Mostly Cloudy
7:00 PM 59 °F 56 °F 88% 29.94 in - North 2.3 mph - -  
7:20 PM 60.8 °F 55.4 °F 82% 29.95 in 6.2 mi Variable 1.2 mph - N/A   Mostly Cloudy
7:50 PM 60.8 °F 53.6 °F 77% 29.95 in 6.2 mi Variable 1.2 mph - N/A   Mostly Cloudy
8:20 PM 59.0 °F 53.6 °F 82% 29.95 in - Variable 2.3 mph - N/A   Clear
8:50 PM 57.2 °F 53.6 °F 88% 29.95 in - Variable 2.3 mph - N/A   Clear
9:00 PM 58 °F 53 °F 78% 29.95 in - ESE 5.8 mph - -  
9:20 PM 59.0 °F 51.8 °F 77% 29.95 in 6.2 mi Variable 2.3 mph - N/A   Mostly Cloudy
9:50 PM 57.2 °F 53.6 °F 88% 29.95 in 6.2 mi South 4.6 mph - N/A   Mostly Cloudy
10:00 PM 58 °F 52 °F 75% 29.97 in - West 1.2 mph - -  
10:20 PM 57.2 °F 53.6 °F 88% 29.98 in 6.2 mi South 5.8 mph - N/A   Scattered Clouds
10:50 PM 57.2 °F 53.6 °F 88% 29.98 in 6.2 mi Variable 3.5 mph - N/A   Partly Cloudy
11:20 PM 55.4 °F 53.6 °F 94% 29.98 in 6.2 mi Variable 3.5 mph - N/A   Mostly Cloudy
11:50 PM 55.4 °F 53.6 °F 94% 29.98 in 6.2 mi SE 4.6 mph - N/A   Mostly Cloudy